Starlink 31518

operational
NORAD ID: 59219 Int'l Des: 2024-046 Owner: SPXS Country: US Constellation: starlink
LEOCIRCULAR

关于 Starlink 31518

正在加载描述...

实时位置

正在加载3D地球...

即将过境

高度历史

Altitude vs Time

uPlot chart will show altitude changes over time

两行轨道根数

1 59219U 24046U 25303.46438876 -.00000469 00000-0 -36941-5 0 9990
2 59219 53.1610 40.0641 0001275 99.7900 260.3245 15.30190176 93106
Epoch: Oct 30, 2025 • Age: 20 hours

当前状态

高度 475.4 km
速度 7.63 km/s
星下点 18.26°N, 103.88°W
发射日期 Mar 11, 2024
运行时间 1.6 years
类型 internet

技术详情

分类 Payload
质量 730.00 kg
干质量 700.00 kg
总质量 730.00 kg
长度 0.30 m
直径 4.10 m
跨度 29.00 m
形状 Box + pan
制造商 SPXS
平台类型 Starlink V2M
阶段状态 In Orbit
所有者/国家 SPXS/US

大型星座

Loading constellations...